Location: Knowlton
(51.2333°N, 1.2667°E)
Time: 03:55:28
(UTC+00:00)

Resurs 1-3 - Pass Details

Date: 18 April 2021
Orbit: 629 x 633 km, 97.9° (Epoch: 06 May)

Event Time Altitude Azimuth Distance (km) Brightness Sun altitude
Exits shadow 19:23:13 - 146° (SE) 2,791 6.4 -4.7°
Reaches altitude 10° 19:25:10 10° 141° (SE) 2,012 5.6 -5.0°
Maximum altitude 19:29:20 45° 69° (ENE) 863 4.0 -5.6°
Drops below altitude 10° 19:33:32 10° 357° (N) 2,025 6.6 -6.2°
Sets 19:35:48 0° 351° (N) 2,937 7.6 -6.5°
